Date_Time,Julian_Date,Latitude,Longitude,Instrument_Depth,U,V,Speed,Direction
(yyyy-mm-dd hh:mn:ss UTC),(JD),(+ deg. North),(+ deg. East),(m),(cm/s),(cm/s),(cm/s),(deg True)
1982-01-24 18:30:00 UTC,2444994.270833,29.6417,-93.6667,0076,-4.05,-2.94,5.0000,234.0000
1982-01-24 19:00:00 UTC,2444994.291667,29.6417,-93.6667,0076,-3.77,-3.28,5.0000,229.0000
1982-01-24 19:30:00 UTC,2444994.312500,29.6417,-93.6667,0076,-4.24,-4.24,6.0000,225.0000
1982-01-24 20:00:00 UTC,2444994.333333,29.6417,-93.6667,0076,-6.95,-7.19,10.0000,224.0000
1982-01-24 20:30:00 UTC,2444994.354167,29.6417,-93.6667,0076,-11.51,-11.11,16.0000,226.0000
1982-01-24 21:00:00 UTC,2444994.375000,29.6417,-93.6667,0076,-14.55,-12.21,19.0000,230.0000
1982-01-24 21:30:00 UTC,2444994.395833,29.6417,-93.6667,0076,-18.24,-12.30,22.0000,236.0000
1982-01-24 22:00:00 UTC,2444994.416667,29.6417,-93.6667,0076,-20.99,-11.64,24.0000,241.0000
1982-01-24 22:30:00 UTC,2444994.437500,29.6417,-93.6667,0076,-23.01,-9.77,25.0000,247.0000
1982-01-24 23:00:00 UTC,2444994.458333,29.6417,-93.6667,0076,-22.95,-7.02,24.0000,253.0000
1982-01-24 23:30:00 UTC,2444994.479167,29.6417,-93.6667,0076,-20.28,-5.44,21.0000,255.0000
1982-01-25 00:00:00 UTC,2444994.500000,29.6417,-93.6667,0076,-18.51,-4.27,19.0000,257.0000
1982-01-25 00:30:00 UTC,2444994.520833,29.6417,-93.6667,0076,-17.90,-1.88,18.0000,264.0000
1982-01-25 01:00:00 UTC,2444994.541667,29.6417,-93.6667,0076,-16.98,0.89,17.0000,273.0000
1982-01-25 01:30:00 UTC,2444994.562500,29.6417,-93.6667,0076,-13.90,1.71,14.0000,277.0000
1982-01-25 02:00:00 UTC,2444994.583333,29.6417,-93.6667,0076,-11.00,-0.00,11.0000,270.0000
1982-01-25 02:30:00 UTC,2444994.604167,29.6417,-93.6667,0076,-9.85,-1.74,10.0000,260.0000
1982-01-25 03:00:00 UTC,2444994.625000,29.6417,-93.6667,0076,-10.63,-2.85,11.0000,255.0000
1982-01-25 03:30:00 UTC,2444994.645833,29.6417,-93.6667,0076,-10.52,-3.22,11.0000,253.0000
1982-01-25 04:00:00 UTC,2444994.666667,29.6417,-93.6667,0076,-10.34,-3.76,11.0000,250.0000
1982-01-25 04:30:00 UTC,2444994.687500,29.6417,-93.6667,0076,-9.51,-3.09,10.0000,252.0000
1982-01-25 05:00:00 UTC,2444994.708333,29.6417,-93.6667,0076,-8.83,-1.72,9.0000,259.0000
1982-01-25 05:30:00 UTC,2444994.729167,29.6417,-93.6667,0076,-9.99,-0.52,10.0000,267.0000
1982-01-25 06:00:00 UTC,2444994.750000,29.6417,-93.6667,0076,-9.99,-0.52,10.0000,267.0000
1982-01-25 06:30:00 UTC,2444994.770833,29.6417,-93.6667,0076,-9.78,-2.08,10.0000,258.0000
1982-01-25 07:00:00 UTC,2444994.791667,29.6417,-93.6667,0076,-10.52,-3.22,11.0000,253.0000
1982-01-25 07:30:00 UTC,2444994.812500,29.6417,-93.6667,0076,-11.54,-3.31,12.0000,254.0000
1982-01-25 08:00:00 UTC,2444994.833333,29.6417,-93.6667,0076,-12.56,-3.36,13.0000,255.0000
1982-01-25 08:30:00 UTC,2444994.854167,29.6417,-93.6667,0076,-12.67,-2.92,13.0000,257.0000
1982-01-25 09:00:00 UTC,2444994.875000,29.6417,-93.6667,0076,-10.76,-2.29,11.0000,258.0000
1982-01-25 09:30:00 UTC,2444994.895833,29.6417,-93.6667,0076,-9.56,-2.92,10.0000,253.0000
1982-01-25 10:00:00 UTC,2444994.916667,29.6417,-93.6667,0076,-7.00,-3.88,8.0000,241.0000
1982-01-25 10:30:00 UTC,2444994.937500,29.6417,-93.6667,0076,-5.59,-4.21,7.0000,233.0000
1982-01-25 11:00:00 UTC,2444994.958333,29.6417,-93.6667,0076,-4.97,-3.36,6.0000,236.0000
1982-01-25 11:30:00 UTC,2444994.979167,29.6417,-93.6667,0076,-3.94,-3.08,5.0000,232.0000
1982-01-25 12:00:00 UTC,2444995.000000,29.6417,-93.6667,0076,-2.35,-3.24,4.0000,216.0000
1982-01-25 12:30:00 UTC,2444995.020833,29.6417,-93.6667,0076,-0.68,-1.88,2.0000,200.0000
1982-01-25 13:00:00 UTC,2444995.041667,29.6417,-93.6667,0076,-0.10,-0.99,1.0000,186.0000
1982-01-25 13:30:00 UTC,2444995.062500,29.6417,-93.6667,0076,0.00,-0.00,0.0000,136.0000
1982-01-25 14:00:00 UTC,2444995.083333,29.6417,-93.6667,0076,0.66,0.75,1.0000,41.0000
1982-01-25 14:30:00 UTC,2444995.104167,29.6417,-93.6667,0076,1.06,1.70,2.0000,32.0000
1982-01-25 15:00:00 UTC,2444995.125000,29.6417,-93.6667,0076,1.93,2.30,3.0000,40.0000
1982-01-25 15:30:00 UTC,2444995.145833,29.6417,-93.6667,0076,1.68,1.09,2.0000,57.0000
1982-01-25 16:00:00 UTC,2444995.166667,29.6417,-93.6667,0076,1.00,0.07,1.0000,86.0000
1982-01-25 16:30:00 UTC,2444995.187500,29.6417,-93.6667,0076,0.90,-0.44,1.0000,116.0000
1982-01-25 17:00:00 UTC,2444995.208333,29.6417,-93.6667,0076,0.77,-0.64,1.0000,130.0000
1982-01-25 17:30:00 UTC,2444995.229167,29.6417,-93.6667,0076,0.00,-0.00,0.0000,124.0000
1982-01-25 18:00:00 UTC,2444995.250000,29.6417,-93.6667,0076,-0.00,0.00,0.0000,343.0000
1982-01-25 18:30:00 UTC,2444995.270833,29.6417,-93.6667,0076,-0.00,0.00,0.0000,334.0000
1982-01-25 19:00:00 UTC,2444995.291667,29.6417,-93.6667,0076,-0.63,0.78,1.0000,321.0000
1982-01-25 19:30:00 UTC,2444995.312500,29.6417,-93.6667,0076,-0.72,0.69,1.0000,314.0000
1982-01-25 20:00:00 UTC,2444995.333333,29.6417,-93.6667,0076,-1.71,1.03,2.0000,301.0000
1982-01-25 20:30:00 UTC,2444995.354167,29.6417,-93.6667,0076,-2.99,0.21,3.0000,274.0000
1982-01-25 21:00:00 UTC,2444995.375000,29.6417,-93.6667,0076,-4.67,-1.79,5.0000,249.0000
1982-01-25 21:30:00 UTC,2444995.395833,29.6417,-93.6667,0076,-6.78,-4.24,8.0000,238.0000
1982-01-25 22:00:00 UTC,2444995.416667,29.6417,-93.6667,0076,-7.55,-4.90,9.0000,237.0000
1982-01-25 22:30:00 UTC,2444995.437500,29.6417,-93.6667,0076,-7.00,-3.88,8.0000,241.0000
1982-01-25 23:00:00 UTC,2444995.458333,29.6417,-93.6667,0076,-4.49,-2.19,5.0000,244.0000
1982-01-25 23:30:00 UTC,2444995.479167,29.6417,-93.6667,0076,-2.49,-1.68,3.0000,236.0000
1982-01-26 00:00:00 UTC,2444995.500000,29.6417,-93.6667,0076,-2.46,-3.15,4.0000,218.0000
1982-01-26 00:30:00 UTC,2444995.520833,29.6417,-93.6667,0076,-3.28,-3.77,5.0000,221.0000
1982-01-26 01:00:00 UTC,2444995.541667,29.6417,-93.6667,0076,-4.37,-2.42,5.0000,241.0000
1982-01-26 01:30:00 UTC,2444995.562500,29.6417,-93.6667,0076,-4.99,-0.35,5.0000,266.0000
1982-01-26 02:00:00 UTC,2444995.583333,29.6417,-93.6667,0076,-5.91,1.04,6.0000,280.0000
1982-01-26 02:30:00 UTC,2444995.604167,29.6417,-93.6667,0076,-4.83,1.29,5.0000,285.0000
1982-01-26 03:00:00 UTC,2444995.625000,29.6417,-93.6667,0076,-4.29,2.58,5.0000,301.0000
1982-01-26 03:30:00 UTC,2444995.645833,29.6417,-93.6667,0076,-4.09,4.39,6.0000,317.0000
1982-01-26 04:00:00 UTC,2444995.666667,29.6417,-93.6667,0076,-4.09,4.39,6.0000,317.0000
1982-01-26 04:30:00 UTC,2444995.687500,29.6417,-93.6667,0076,-2.30,1.93,3.0000,310.0000
1982-01-26 05:00:00 UTC,2444995.708333,29.6417,-93.6667,0076,-1.23,1.58,2.0000,322.0000
1982-01-26 05:30:00 UTC,2444995.729167,29.6417,-93.6667,0076,-0.35,1.97,2.0000,350.0000
1982-01-26 06:00:00 UTC,2444995.750000,29.6417,-93.6667,0076,-0.62,1.90,2.0000,342.0000
1982-01-26 06:30:00 UTC,2444995.770833,29.6417,-93.6667,0076,-1.17,3.83,4.0000,343.0000
1982-01-26 07:00:00 UTC,2444995.791667,29.6417,-93.6667,0076,-0.28,8.00,8.0000,358.0000
1982-01-26 07:30:00 UTC,2444995.812500,29.6417,-93.6667,0076,2.42,9.70,10.0000,14.0000
1982-01-26 08:00:00 UTC,2444995.833333,29.6417,-93.6667,0076,7.43,6.69,10.0000,48.0000
1982-01-26 08:30:00 UTC,2444995.854167,29.6417,-93.6667,0076,12.80,2.26,13.0000,80.0000
1982-01-26 09:00:00 UTC,2444995.875000,29.6417,-93.6667,0076,14.00,-0.24,14.0000,91.0000
1982-01-26 09:30:00 UTC,2444995.895833,29.6417,-93.6667,0076,12.99,-0.45,13.0000,92.0000
1982-01-26 10:00:00 UTC,2444995.916667,29.6417,-93.6667,0076,13.99,0.49,14.0000,88.0000
1982-01-26 10:30:00 UTC,2444995.937500,29.6417,-93.6667,0076,15.00,0.00,15.0000,90.0000
1982-01-26 11:00:00 UTC,2444995.958333,29.6417,-93.6667,0076,13.83,-2.19,14.0000,99.0000
1982-01-26 11:30:00 UTC,2444995.979167,29.6417,-93.6667,0076,11.48,-3.51,12.0000,107.0000
1982-01-26 12:00:00 UTC,2444996.000000,29.6417,-93.6667,0076,10.20,-4.12,11.0000,112.0000
1982-01-26 12:30:00 UTC,2444996.020833,29.6417,-93.6667,0076,7.00,-3.88,8.0000,119.0000
1982-01-26 13:00:00 UTC,2444996.041667,29.6417,-93.6667,0076,3.94,-3.08,5.0000,128.0000
1982-01-26 13:30:00 UTC,2444996.062500,29.6417,-93.6667,0076,2.52,-1.63,3.0000,123.0000
1982-01-26 14:00:00 UTC,2444996.083333,29.6417,-93.6667,0076,4.70,-1.71,5.0000,110.0000
1982-01-26 14:30:00 UTC,2444996.104167,29.6417,-93.6667,0076,5.77,-1.65,6.0000,106.0000
1982-01-26 15:00:00 UTC,2444996.125000,29.6417,-93.6667,0076,4.78,-1.46,5.0000,107.0000
1982-01-26 15:30:00 UTC,2444996.145833,29.6417,-93.6667,0076,4.49,-2.19,5.0000,116.0000
1982-01-26 16:00:00 UTC,2444996.166667,29.6417,-93.6667,0076,4.73,-3.69,6.0000,128.0000
1982-01-26 16:30:00 UTC,2444996.187500,29.6417,-93.6667,0076,4.32,-4.17,6.0000,134.0000
1982-01-26 17:00:00 UTC,2444996.208333,29.6417,-93.6667,0076,5.28,-4.59,7.0000,131.0000
1982-01-26 17:30:00 UTC,2444996.229167,29.6417,-93.6667,0076,7.19,-5.42,9.0000,127.0000
1982-01-26 18:00:00 UTC,2444996.250000,29.6417,-93.6667,0076,5.66,-4.11,7.0000,126.0000
1982-01-26 18:30:00 UTC,2444996.270833,29.6417,-93.6667,0076,4.60,-3.86,6.0000,130.0000
1982-01-26 19:00:00 UTC,2444996.291667,29.6417,-93.6667,0076,5.03,-6.22,8.0000,141.0000
1982-01-26 19:30:00 UTC,2444996.312500,29.6417,-93.6667,0076,5.88,-8.09,10.0000,144.0000
1982-01-26 20:00:00 UTC,2444996.333333,29.6417,-93.6667,0076,4.64,-7.71,9.0000,149.0000
1982-01-26 20:30:00 UTC,2444996.354167,29.6417,-93.6667,0076,2.62,-6.49,7.0000,158.0000
1982-01-26 21:00:00 UTC,2444996.375000,29.6417,-93.6667,0076,2.93,-8.51,9.0000,161.0000
1982-01-26 21:30:00 UTC,2444996.395833,29.6417,-93.6667,0076,3.80,-12.43,13.0000,163.0000
1982-01-26 22:00:00 UTC,2444996.416667,29.6417,-93.6667,0076,2.86,-14.72,15.0000,169.0000
1982-01-26 22:30:00 UTC,2444996.437500,29.6417,-93.6667,0076,1.46,-13.92,14.0000,174.0000
1982-01-26 23:00:00 UTC,2444996.458333,29.6417,-93.6667,0076,1.58,-12.90,13.0000,173.0000
1982-01-26 23:30:00 UTC,2444996.479167,29.6417,-93.6667,0076,2.86,-14.72,15.0000,169.0000
1982-01-27 00:00:00 UTC,2444996.500000,29.6417,-93.6667,0076,3.74,-17.61,18.0000,168.0000
1982-01-27 00:30:00 UTC,2444996.520833,29.6417,-93.6667,0076,3.65,-20.68,21.0000,170.0000
1982-01-27 01:00:00 UTC,2444996.541667,29.6417,-93.6667,0076,3.47,-19.70,20.0000,170.0000
1982-01-27 01:30:00 UTC,2444996.562500,29.6417,-93.6667,0076,3.82,-16.56,17.0000,167.0000
1982-01-27 02:00:00 UTC,2444996.583333,29.6417,-93.6667,0076,4.02,-12.36,13.0000,162.0000
1982-01-27 02:30:00 UTC,2444996.604167,29.6417,-93.6667,0076,3.37,-8.34,9.0000,158.0000
1982-01-27 03:00:00 UTC,2444996.625000,29.6417,-93.6667,0076,3.29,-6.18,7.0000,152.0000
1982-01-27 03:30:00 UTC,2444996.645833,29.6417,-93.6667,0076,5.16,-7.37,9.0000,145.0000
1982-01-27 04:00:00 UTC,2444996.666667,29.6417,-93.6667,0076,6.62,-8.78,11.0000,143.0000
1982-01-27 04:30:00 UTC,2444996.687500,29.6417,-93.6667,0076,7.39,-9.46,12.0000,142.0000
1982-01-27 05:00:00 UTC,2444996.708333,29.6417,-93.6667,0076,7.05,-9.71,12.0000,144.0000
1982-01-27 05:30:00 UTC,2444996.729167,29.6417,-93.6667,0076,6.36,-10.18,12.0000,148.0000
1982-01-27 06:00:00 UTC,2444996.750000,29.6417,-93.6667,0076,4.77,-7.63,9.0000,148.0000
1982-01-27 06:30:00 UTC,2444996.770833,29.6417,-93.6667,0076,4.31,-5.52,7.0000,142.0000
1982-01-27 07:00:00 UTC,2444996.791667,29.6417,-93.6667,0076,4.24,-6.78,8.0000,148.0000
1982-01-27 07:30:00 UTC,2444996.812500,29.6417,-93.6667,0076,2.60,-7.56,8.0000,161.0000
1982-01-27 08:00:00 UTC,2444996.833333,29.6417,-93.6667,0076,1.10,-6.91,7.0000,171.0000
1982-01-27 08:30:00 UTC,2444996.854167,29.6417,-93.6667,0076,-0.69,-3.94,4.0000,190.0000
1982-01-27 09:00:00 UTC,2444996.875000,29.6417,-93.6667,0076,-2.57,-3.06,4.0000,220.0000
1982-01-27 09:30:00 UTC,2444996.895833,29.6417,-93.6667,0076,-3.66,-3.41,5.0000,227.0000
1982-01-27 10:00:00 UTC,2444996.916667,29.6417,-93.6667,0076,-5.04,-4.86,7.0000,226.0000
1982-01-27 10:30:00 UTC,2444996.937500,29.6417,-93.6667,0076,-6.89,-5.79,9.0000,230.0000
1982-01-27 11:00:00 UTC,2444996.958333,29.6417,-93.6667,0076,-9.71,-7.05,12.0000,234.0000
1982-01-27 11:30:00 UTC,2444996.979167,29.6417,-93.6667,0076,-12.44,-8.39,15.0000,236.0000
1982-01-27 12:00:00 UTC,2444997.000000,29.6417,-93.6667,0076,-14.92,-10.07,18.0000,236.0000
1982-01-27 12:30:00 UTC,2444997.020833,29.6417,-93.6667,0076,-17.81,-11.13,21.0000,238.0000
1982-01-27 13:00:00 UTC,2444997.041667,29.6417,-93.6667,0076,-20.12,-11.15,23.0000,241.0000
1982-01-27 13:30:00 UTC,2444997.062500,29.6417,-93.6667,0076,-21.87,-12.12,25.0000,241.0000
1982-01-27 14:00:00 UTC,2444997.083333,29.6417,-93.6667,0076,-22.74,-12.61,26.0000,241.0000
1982-01-27 14:30:00 UTC,2444997.104167,29.6417,-93.6667,0076,-23.17,-11.80,26.0000,243.0000
1982-01-27 15:00:00 UTC,2444997.125000,29.6417,-93.6667,0076,-24.27,-9.32,26.0000,249.0000
1982-01-27 15:30:00 UTC,2444997.145833,29.6417,-93.6667,0076,-24.03,-6.89,25.0000,254.0000
1982-01-27 16:00:00 UTC,2444997.166667,29.6417,-93.6667,0076,-23.64,-4.17,24.0000,260.0000
1982-01-27 16:30:00 UTC,2444997.187500,29.6417,-93.6667,0076,-21.92,-1.92,22.0000,265.0000
1982-01-27 17:00:00 UTC,2444997.208333,29.6417,-93.6667,0076,-21.00,-0.37,21.0000,269.0000
1982-01-27 17:30:00 UTC,2444997.229167,29.6417,-93.6667,0076,-17.96,1.26,18.0000,274.0000
1982-01-27 18:00:00 UTC,2444997.250000,29.6417,-93.6667,0076,-14.96,1.05,15.0000,274.0000
1982-01-27 18:30:00 UTC,2444997.270833,29.6417,-93.6667,0076,-17.00,0.30,17.0000,271.0000
1982-01-27 19:00:00 UTC,2444997.291667,29.6417,-93.6667,0076,-17.98,0.94,18.0000,273.0000
1982-01-27 19:30:00 UTC,2444997.312500,29.6417,-93.6667,0076,-15.98,0.84,16.0000,273.0000
1982-01-27 20:00:00 UTC,2444997.333333,29.6417,-93.6667,0076,-14.00,0.24,14.0000,271.0000
1982-01-27 20:30:00 UTC,2444997.354167,29.6417,-93.6667,0076,-14.00,0.24,14.0000,271.0000
1982-01-27 21:00:00 UTC,2444997.375000,29.6417,-93.6667,0076,-16.00,0.28,16.0000,271.0000
1982-01-27 21:30:00 UTC,2444997.395833,29.6417,-93.6667,0076,-17.00,0.30,17.0000,271.0000
1982-01-27 22:00:00 UTC,2444997.416667,29.6417,-93.6667,0076,-15.98,-0.84,16.0000,267.0000
1982-01-27 22:30:00 UTC,2444997.437500,29.6417,-93.6667,0076,-14.55,-3.63,15.0000,256.0000
1982-01-27 23:00:00 UTC,2444997.458333,29.6417,-93.6667,0076,-13.48,-6.58,15.0000,244.0000
1982-01-27 23:30:00 UTC,2444997.479167,29.6417,-93.6667,0076,-14.13,-7.51,16.0000,242.0000
1982-01-28 00:00:00 UTC,2444997.500000,29.6417,-93.6667,0076,-15.65,-6.64,17.0000,247.0000
1982-01-28 00:30:00 UTC,2444997.520833,29.6417,-93.6667,0076,-17.96,-6.19,19.0000,251.0000
1982-01-28 01:00:00 UTC,2444997.541667,29.6417,-93.6667,0076,-20.46,-4.72,21.0000,257.0000
1982-01-28 01:30:00 UTC,2444997.562500,29.6417,-93.6667,0076,-18.90,-1.99,19.0000,264.0000
1982-01-28 02:00:00 UTC,2444997.583333,29.6417,-93.6667,0076,-14.99,0.52,15.0000,272.0000
1982-01-28 02:30:00 UTC,2444997.604167,29.6417,-93.6667,0076,-11.69,2.70,12.0000,283.0000
1982-01-28 03:00:00 UTC,2444997.625000,29.6417,-93.6667,0076,-11.35,3.91,12.0000,289.0000
1982-01-28 03:30:00 UTC,2444997.645833,29.6417,-93.6667,0076,-9.46,3.26,10.0000,289.0000
1982-01-28 04:00:00 UTC,2444997.666667,29.6417,-93.6667,0076,-6.89,1.22,7.0000,280.0000
1982-01-28 04:30:00 UTC,2444997.687500,29.6417,-93.6667,0076,-6.00,0.10,6.0000,271.0000
1982-01-28 05:00:00 UTC,2444997.708333,29.6417,-93.6667,0076,-6.00,-0.21,6.0000,268.0000
1982-01-28 05:30:00 UTC,2444997.729167,29.6417,-93.6667,0076,-6.00,-0.21,6.0000,268.0000
1982-01-28 06:00:00 UTC,2444997.750000,29.6417,-93.6667,0076,-4.92,0.87,5.0000,280.0000
1982-01-28 06:30:00 UTC,2444997.770833,29.6417,-93.6667,0076,-5.25,2.91,6.0000,299.0000
1982-01-28 07:00:00 UTC,2444997.791667,29.6417,-93.6667,0076,-4.85,3.53,6.0000,306.0000
1982-01-28 07:30:00 UTC,2444997.812500,29.6417,-93.6667,0076,-5.20,3.00,6.0000,300.0000
1982-01-28 08:00:00 UTC,2444997.833333,29.6417,-93.6667,0076,-6.69,2.05,7.0000,287.0000
1982-01-28 08:30:00 UTC,2444997.854167,29.6417,-93.6667,0076,-6.99,0.37,7.0000,273.0000
1982-01-28 09:00:00 UTC,2444997.875000,29.6417,-93.6667,0076,-6.93,-0.97,7.0000,262.0000
1982-01-28 09:30:00 UTC,2444997.895833,29.6417,-93.6667,0076,-5.82,-1.45,6.0000,256.0000
1982-01-28 10:00:00 UTC,2444997.916667,29.6417,-93.6667,0076,-4.57,-2.03,5.0000,246.0000
1982-01-28 10:30:00 UTC,2444997.937500,29.6417,-93.6667,0076,-4.73,-3.69,6.0000,232.0000
1982-01-28 11:00:00 UTC,2444997.958333,29.6417,-93.6667,0076,-3.94,-4.53,6.0000,221.0000
1982-01-28 11:30:00 UTC,2444997.979167,29.6417,-93.6667,0076,-2.58,-4.29,5.0000,211.0000
1982-01-28 12:00:00 UTC,2444998.000000,29.6417,-93.6667,0076,-1.56,-3.68,4.0000,203.0000
1982-01-28 12:30:00 UTC,2444998.020833,29.6417,-93.6667,0076,-1.21,-4.85,5.0000,194.0000
1982-01-28 13:00:00 UTC,2444998.041667,29.6417,-93.6667,0076,-1.04,-4.89,5.0000,192.0000
1982-01-28 13:30:00 UTC,2444998.062500,29.6417,-93.6667,0076,-1.95,-5.67,6.0000,199.0000
1982-01-28 14:00:00 UTC,2444998.083333,29.6417,-93.6667,0076,-4.36,-7.87,9.0000,209.0000
1982-01-28 14:30:00 UTC,2444998.104167,29.6417,-93.6667,0076,-6.62,-8.79,11.0000,217.0000
1982-01-28 15:00:00 UTC,2444998.125000,29.6417,-93.6667,0076,-9.46,-7.39,12.0000,232.0000
1982-01-28 15:30:00 UTC,2444998.145833,29.6417,-93.6667,0076,-11.20,-4.30,12.0000,249.0000
1982-01-28 16:00:00 UTC,2444998.166667,29.6417,-93.6667,0076,-9.78,-2.08,10.0000,258.0000
1982-01-28 16:30:00 UTC,2444998.187500,29.6417,-93.6667,0076,-8.80,-1.87,9.0000,258.0000
1982-01-28 17:00:00 UTC,2444998.208333,29.6417,-93.6667,0076,-11.85,-1.88,12.0000,261.0000
1982-01-28 17:30:00 UTC,2444998.229167,29.6417,-93.6667,0076,-18.00,0.31,18.0000,271.0000
1982-01-28 18:00:00 UTC,2444998.250000,29.6417,-93.6667,0076,-19.70,3.47,20.0000,280.0000
1982-01-28 18:30:00 UTC,2444998.270833,29.6417,-93.6667,0076,-18.58,3.95,19.0000,282.0000
1982-01-28 19:00:00 UTC,2444998.291667,29.6417,-93.6667,0076,-17.67,3.43,18.0000,281.0000
1982-01-28 19:30:00 UTC,2444998.312500,29.6417,-93.6667,0076,-17.67,3.43,18.0000,281.0000
1982-01-28 20:00:00 UTC,2444998.333333,29.6417,-93.6667,0076,-18.77,2.97,19.0000,279.0000
1982-01-28 20:30:00 UTC,2444998.354167,29.6417,-93.6667,0076,-20.92,1.83,21.0000,275.0000
1982-01-28 21:00:00 UTC,2444998.375000,29.6417,-93.6667,0076,-21.95,1.53,22.0000,274.0000
1982-01-28 21:30:00 UTC,2444998.395833,29.6417,-93.6667,0076,-22.83,2.80,23.0000,277.0000
1982-01-28 22:00:00 UTC,2444998.416667,29.6417,-93.6667,0076,-22.83,2.80,23.0000,277.0000
1982-01-28 22:30:00 UTC,2444998.437500,29.6417,-93.6667,0076,-22.91,2.00,23.0000,275.0000
1982-01-28 23:00:00 UTC,2444998.458333,29.6417,-93.6667,0076,-22.97,1.20,23.0000,273.0000
1982-01-28 23:30:00 UTC,2444998.479167,29.6417,-93.6667,0076,-22.94,1.60,23.0000,274.0000
1982-01-29 00:00:00 UTC,2444998.500000,29.6417,-93.6667,0076,-20.84,2.56,21.0000,277.0000
1982-01-29 00:30:00 UTC,2444998.520833,29.6417,-93.6667,0076,-16.74,2.95,17.0000,280.0000
1982-01-29 01:00:00 UTC,2444998.541667,29.6417,-93.6667,0076,-11.85,1.88,12.0000,279.0000
1982-01-29 01:30:00 UTC,2444998.562500,29.6417,-93.6667,0076,-7.92,1.11,8.0000,278.0000
1982-01-29 02:00:00 UTC,2444998.583333,29.6417,-93.6667,0076,-4.89,1.04,5.0000,282.0000
1982-01-29 02:30:00 UTC,2444998.604167,29.6417,-93.6667,0076,-2.99,0.21,3.0000,274.0000
1982-01-29 03:00:00 UTC,2444998.625000,29.6417,-93.6667,0076,-3.78,-1.30,4.0000,251.0000
1982-01-29 03:30:00 UTC,2444998.645833,29.6417,-93.6667,0076,-4.41,-2.35,5.0000,242.0000
1982-01-29 04:00:00 UTC,2444998.666667,29.6417,-93.6667,0076,-3.83,-3.21,5.0000,230.0000
1982-01-29 04:30:00 UTC,2444998.687500,29.6417,-93.6667,0076,-2.80,-4.15,5.0000,214.0000
1982-01-29 05:00:00 UTC,2444998.708333,29.6417,-93.6667,0076,-2.27,-4.46,5.0000,207.0000
1982-01-29 05:30:00 UTC,2444998.729167,29.6417,-93.6667,0076,-2.27,-4.46,5.0000,207.0000
1982-01-29 06:00:00 UTC,2444998.750000,29.6417,-93.6667,0076,-3.69,-4.73,6.0000,218.0000
1982-01-29 06:30:00 UTC,2444998.770833,29.6417,-93.6667,0076,-5.59,-4.21,7.0000,233.0000
1982-01-29 07:00:00 UTC,2444998.791667,29.6417,-93.6667,0076,-7.46,-5.03,9.0000,236.0000
1982-01-29 07:30:00 UTC,2444998.812500,29.6417,-93.6667,0076,-6.89,-5.79,9.0000,230.0000
1982-01-29 08:00:00 UTC,2444998.833333,29.6417,-93.6667,0076,-7.31,-6.82,10.0000,227.0000
1982-01-29 08:30:00 UTC,2444998.854167,29.6417,-93.6667,0076,-10.10,-8.18,13.0000,231.0000
1982-01-29 09:00:00 UTC,2444998.875000,29.6417,-93.6667,0076,-12.14,-8.82,15.0000,234.0000
1982-01-29 09:30:00 UTC,2444998.895833,29.6417,-93.6667,0076,-11.98,-9.03,15.0000,233.0000
1982-01-29 10:00:00 UTC,2444998.916667,29.6417,-93.6667,0076,-10.24,-8.00,13.0000,232.0000
1982-01-29 10:30:00 UTC,2444998.937500,29.6417,-93.6667,0076,-8.67,-6.77,11.0000,232.0000
1982-01-29 11:00:00 UTC,2444998.958333,29.6417,-93.6667,0076,-8.78,-6.62,11.0000,233.0000
1982-01-29 11:30:00 UTC,2444998.979167,29.6417,-93.6667,0076,-10.18,-6.36,12.0000,238.0000
1982-01-29 12:00:00 UTC,2444999.000000,29.6417,-93.6667,0076,-11.14,-6.70,13.0000,239.0000
1982-01-29 12:30:00 UTC,2444999.020833,29.6417,-93.6667,0076,-10.24,-8.00,13.0000,232.0000
1982-01-29 13:00:00 UTC,2444999.041667,29.6417,-93.6667,0076,-8.49,-8.49,12.0000,225.0000
1982-01-29 13:30:00 UTC,2444999.062500,29.6417,-93.6667,0076,-6.69,-7.43,10.0000,222.0000
1982-01-29 14:00:00 UTC,2444999.083333,29.6417,-93.6667,0076,-5.54,-7.09,9.0000,218.0000
1982-01-29 14:30:00 UTC,2444999.104167,29.6417,-93.6667,0076,-5.66,-6.99,9.0000,219.0000
1982-01-29 15:00:00 UTC,2444999.125000,29.6417,-93.6667,0076,-7.88,-6.16,10.0000,232.0000
1982-01-29 15:30:00 UTC,2444999.145833,29.6417,-93.6667,0076,-10.40,-3.58,11.0000,251.0000
1982-01-29 16:00:00 UTC,2444999.166667,29.6417,-93.6667,0076,-10.98,0.58,11.0000,273.0000
1982-01-29 16:30:00 UTC,2444999.187500,29.6417,-93.6667,0076,-10.67,2.66,11.0000,284.0000
1982-01-29 17:00:00 UTC,2444999.208333,29.6417,-93.6667,0076,-8.97,0.78,9.0000,275.0000
1982-01-29 17:30:00 UTC,2444999.229167,29.6417,-93.6667,0076,-7.73,-2.07,8.0000,255.0000
1982-01-29 18:00:00 UTC,2444999.250000,29.6417,-93.6667,0076,-6.86,-4.12,8.0000,239.0000
1982-01-29 18:30:00 UTC,2444999.270833,29.6417,-93.6667,0076,-4.60,-3.86,6.0000,230.0000
1982-01-29 19:00:00 UTC,2444999.291667,29.6417,-93.6667,0076,-3.60,-3.47,5.0000,226.0000
1982-01-29 19:30:00 UTC,2444999.312500,29.6417,-93.6667,0076,-3.72,-3.35,5.0000,228.0000
1982-01-29 20:00:00 UTC,2444999.333333,29.6417,-93.6667,0076,-4.39,-4.09,6.0000,227.0000
1982-01-29 20:30:00 UTC,2444999.354167,29.6417,-93.6667,0076,-4.11,-5.66,7.0000,216.0000
1982-01-29 21:00:00 UTC,2444999.375000,29.6417,-93.6667,0076,-3.52,-8.28,9.0000,203.0000
1982-01-29 21:30:00 UTC,2444999.395833,29.6417,-93.6667,0076,-3.51,-11.48,12.0000,197.0000
1982-01-29 22:00:00 UTC,2444999.416667,29.6417,-93.6667,0076,-4.56,-13.24,14.0000,199.0000
1982-01-29 22:30:00 UTC,2444999.437500,29.6417,-93.6667,0076,-7.50,-12.99,15.0000,210.0000
1982-01-29 23:00:00 UTC,2444999.458333,29.6417,-93.6667,0076,-11.59,-12.43,17.0000,223.0000
1982-01-29 23:30:00 UTC,2444999.479167,29.6417,-93.6667,0076,-16.62,-9.21,19.0000,241.0000
1982-01-30 00:00:00 UTC,2444999.500000,29.6417,-93.6667,0076,-20.80,-2.92,21.0000,262.0000
1982-01-30 00:30:00 UTC,2444999.520833,29.6417,-93.6667,0076,-21.00,0.37,21.0000,271.0000
1982-01-30 01:00:00 UTC,2444999.541667,29.6417,-93.6667,0076,-19.00,-0.00,19.0000,270.0000
1982-01-30 01:30:00 UTC,2444999.562500,29.6417,-93.6667,0076,-21.92,-1.92,22.0000,265.0000
1982-01-30 02:00:00 UTC,2444999.583333,29.6417,-93.6667,0076,-24.69,-3.91,25.0000,261.0000
1982-01-30 02:30:00 UTC,2444999.604167,29.6417,-93.6667,0076,-24.76,-3.48,25.0000,262.0000
1982-01-30 03:00:00 UTC,2444999.625000,29.6417,-93.6667,0076,-21.73,-3.44,22.0000,261.0000
1982-01-30 03:30:00 UTC,2444999.645833,29.6417,-93.6667,0076,-19.49,-4.50,20.0000,257.0000
1982-01-30 04:00:00 UTC,2444999.666667,29.6417,-93.6667,0076,-20.38,-5.08,21.0000,256.0000
1982-01-30 04:30:00 UTC,2444999.687500,29.6417,-93.6667,0076,-21.52,-4.57,22.0000,258.0000
1982-01-30 05:00:00 UTC,2444999.708333,29.6417,-93.6667,0076,-20.61,-4.01,21.0000,259.0000
1982-01-30 05:30:00 UTC,2444999.729167,29.6417,-93.6667,0076,-20.74,-3.29,21.0000,261.0000
1982-01-30 06:00:00 UTC,2444999.750000,29.6417,-93.6667,0076,-20.88,-2.20,21.0000,264.0000
1982-01-30 06:30:00 UTC,2444999.770833,29.6417,-93.6667,0076,-20.95,-1.46,21.0000,266.0000
1982-01-30 07:00:00 UTC,2444999.791667,29.6417,-93.6667,0076,-16.63,3.53,17.0000,282.0000